Find FSKL5695-12

NORAD ID: 64886 Int'l Des: NNA 2025-155 Owner: RATEKS Country: RU operational
LEOCIRCULARRETROGRADESSO

Live Position

Loading 3D Globe...

About FSKL5695-12

Description loading...

Upcoming Passes

Passes for default location (London). Set your location on the main map for personalized predictions.

Altitude History

Loading altitude history...

Two-Line Element Set

1 64886U 25155L 26104.49695110 .00016734 00000-0 44981-3 0 9998
2 64886 97.4431 74.3138 0008639 50.1893 310.0111 15.37938468 71133
Epoch: Apr 14, 2026 • Age: 5 hours

Current Status

Altitude 459.5 km
Velocity 7.64 km/s
Sub-Earth Point 52.63°N, 164.04°E
Launch Date Jul 25, 2025
Age 0.7 years
Type other

Technical Details

Classification Payload
Mass 3.00 kg
Dry Mass 3.00 kg
Total Mass 3.00 kg
Length 0.30 m
Diameter 0.10 m
Span 0.30 m
Shape Box
Manufacturer RATEKS
Bus Type Cubesat 3U
Phase Status In Orbit
Owner/State RATEKS/RU

Most Searched